星链-36911(STARLINK-36911)

导读

STARLINK-36911(NORAD编号68008)是美国太空探索技术公司(SpaceX)星链(Starlink)卫星互联网项目的低轨通信卫星,归属Starlink V1.0平台,由SpaceX自主研发运营。该卫星运行在近地轨道,轨道倾角约70°,近地点约570公里、远地点约574公里,轨道周期约96.1分钟,每日环绕地球约15圈。作为星链星座的组成部分,它配备相控阵天线,参与构建全球低延迟卫星互联网,可为全球偏远地区提供网络接入服务,同时支持军事、航空等领域通信需求,推动缩小全球数字鸿沟。

基本信息
目录编号:
68008
目录名称:
STARLINK-36911
国际标识:
2026-039Y
轨道中心:
EARTH
卫星名称:
星链-36911
卫星全名:
星链-36911(STARLINK-36911)
卫星状态:
在轨 (已飞行189 天)
发射日期:
2026-02-27 UTC
国别 :
美国 (US)
星等 :
--
轨道信息
数据来源 国际轨道数据
星历时间: 2026-09-04T00:10:22+0800
17小时前
查看轨道信息
半长轴: 6861.164km
偏心率: 0.0001251
轨道倾角: 42.999°
近地点辐角 279.370°
升交点赤经 123.777°
平近点角 80.701°
近地点: 482.168km
远地点: 483.886km
周期: 94.266分钟
每日圈数: 15.275875
详细信息
固有亮度:
5
最大亮度:
2.5
卫星平台:
Starlink V1.0
覆盖范围:
全球
运营商:
太空探索技术公司
运营商所在国:
美国
制造商(研发单位):
太空探索技术公司
制造商所在国:
美国
使用方式:
暂无
卫星简介
Starlink 计划是 SpaceX 推出的全球卫星互联网项目,通过发射低轨道卫星,为全球尤其是偏远地区提供高速、低延迟的互联网服务。自 2019 年起,Starlink 已部署数千颗卫星,旨在缩小全球数字鸿沟,推动互联网普及。该项目还为军事、航空等行业提供通信支持,带来广泛经济效益。
2D轨道图
3D轨道图
轨道高度分析图
轨道倾角分析图
轨道综合分析图
查看轨道综合分析图
交会数据列表
事件ID 空间交会对象 最接近时刻(TCA) 交会距离 交会风险概率(CRP) 交会风险指数(CRI) 操作
CDM_260831-104706-649406-800821
2026-08-31T
10:47:16+0000
0.097 km
近距离
1.018217E-3 极高风险 0.95
CDM_260904-125605-946606-800821
2026-09-04T
12:56:24+0000
0.833 km
远距离
1.040375E-5 中风险 0.55
CDM_260904-103505-946606-800821
2026-09-04T
10:35:11+0000
0.955 km
远距离
6.526692E-6 低风险 0.51
CDM_260904-022205-319706-800821
2026-09-04T
02:22:33+0000
1.506 km
极远距离
6.477736E-6 低风险 0.51
CDM_260831-121606-717806-800821
2026-08-31T
12:16:39+0000
1.724 km
极远距离
2.865969E-6 低风险 0.44
CDM_260903-081705-321406-800821
2026-09-03T
08:17:48+0000
2.551 km
极远距离
1.663335E-6 低风险 0.39
CDM_260903-090405-321406-800821
2026-09-03T
09:04:56+0000
2.947 km
极远距离
1.343796E-6 低风险 0.38
CDM_260904-143005-946606-800821
2026-09-04T
14:30:34+0000
1.718 km
极远距离
1.043766E-6 低风险 0.35
CDM_260831-091306-649406-800821
2026-08-31T
09:13:06+0000
2.465 km
极远距离
9.620227E-7 极低风险 0.35
CDM_260831-122106-649406-800822
2026-08-31T
12:21:25+0000
2.711 km
极远距离
8.320224E-7 极低风险 0.33